ECU YPJT-YPJT

Flight info

Callsign ECU
Flight time 0h 30m
Altitude 1500
Route CIRCUITS AT YPJT
Aircraft C172/L-VGD/A

Departure

Time 2026-05-04 07:34
Airport Perth Jandakot Airport (YPJT)

Arrival

Time 2026-05-04 08:05
Airport Perth Jandakot Airport (YPJT)
Time Latitude Longitude Altitude Speed Heading
2026-05-04 07:22 -32.09834 115.87273 96 ft 0 kts 122°
2026-05-04 07:28 -32.09840 115.87319 96 ft 10 kts 93°
2026-05-04 07:28 -32.09857 115.87404 96 ft 13 kts 162°
2026-05-04 07:29 -32.09946 115.87439 95 ft 11 kts 160°
2026-05-04 07:29 -32.09986 115.87483 94 ft 11 kts 113°
2026-05-04 07:29 -32.10020 115.87578 95 ft 15 kts 113°
2026-05-04 07:29 -32.10049 115.87656 95 ft 0 kts 115°
2026-05-04 07:30 -32.10049 115.87658 95 ft 1 kts 116°
2026-05-04 07:30 -32.10068 115.87714 94 ft 13 kts 90°
2026-05-04 07:30 -32.09966 115.87896 95 ft 52 kts 55°
2026-05-04 07:31 -32.09679 115.88365 206 ft 79 kts 58°
2026-05-04 07:31 -32.09353 115.88885 448 ft 80 kts 56°
2026-05-04 07:33 -32.10882 115.86809 665 ft 91 kts 325°
2026-05-04 07:33 -32.10340 115.86883 383 ft 90 kts 67°
2026-05-04 07:33 -32.10171 115.87528 161 ft 75 kts 66°
2026-05-04 07:33 -32.09917 115.87980 95 ft 56 kts 55°
2026-05-04 07:34 -32.09623 115.88471 183 ft 85 kts 59°
2026-05-04 07:34 -32.09249 115.89037 439 ft 87 kts 52°
2026-05-04 07:34 -32.08928 115.89625 723 ft 86 kts 86°
2026-05-04 07:34 -32.09215 115.90169 909 ft 85 kts 155°
2026-05-04 07:35 -32.09758 115.90425 1096 ft 90 kts 183°
2026-05-04 07:35 -32.10157 115.89802 1019 ft 109 kts 251°
2026-05-04 07:35 -32.10419 115.89025 996 ft 98 kts 237°
2026-05-04 07:35 -32.10740 115.88332 975 ft 97 kts 236°
2026-05-04 07:36 -32.11080 115.87676 845 ft 92 kts 235°
2026-05-04 07:36 -32.10914 115.87043 688 ft 88 kts 335°
2026-05-04 07:38 -32.08203 115.89703 958 ft 104 kts 309°
2026-05-04 07:38 -32.08079 115.88863 1098 ft 108 kts 260°
2026-05-04 07:38 -32.08173 115.88018 1284 ft 106 kts 259°
2026-05-04 07:38 -32.08332 115.87135 1296 ft 113 kts 254°
2026-05-04 07:39 -32.08489 115.86220 1315 ft 117 kts 255°
2026-05-04 07:39 -32.08637 115.85268 1319 ft 119 kts 256°
2026-05-04 07:39 -32.08776 115.84296 1320 ft 121 kts 257°
2026-05-04 07:39 -32.08905 115.83295 1310 ft 124 kts 259°
2026-05-04 07:40 -32.09003 115.82301 1317 ft 122 kts 270°
2026-05-04 07:40 -32.08685 115.81395 1341 ft 123 kts 302°
2026-05-04 07:40 -32.08340 115.80451 1345 ft 131 kts 284°
2026-05-04 07:40 -32.08121 115.79457 1438 ft 117 kts 283°
2026-05-04 07:41 -32.07914 115.78560 1444 ft 111 kts 284°
2026-05-04 07:41 -32.07697 115.77708 1472 ft 107 kts 286°
2026-05-04 07:41 -32.07499 115.76870 1473 ft 106 kts 282°
2026-05-04 07:41 -32.07300 115.76026 1481 ft 108 kts 285°
2026-05-04 07:42 -32.07055 115.75183 1506 ft 109 kts 288°
2026-05-04 07:42 -32.06800 115.74345 1489 ft 109 kts 289°
2026-05-04 07:42 -32.06522 115.73505 1482 ft 111 kts 290°
2026-05-04 07:42 -32.06238 115.72671 1506 ft 111 kts 291°
2026-05-04 07:43 -32.05938 115.71826 1535 ft 113 kts 291°
2026-05-04 07:43 -32.05625 115.70982 1564 ft 111 kts 293°
2026-05-04 07:43 -32.05322 115.70190 1532 ft 102 kts 293°
2026-05-04 07:43 -32.05023 115.69437 1493 ft 103 kts 294°
2026-05-04 07:44 -32.04704 115.68663 1477 ft 106 kts 295°
2026-05-04 07:44 -32.04364 115.67880 1470 ft 108 kts 296°
2026-05-04 07:44 -32.04006 115.67104 1496 ft 108 kts 298°
2026-05-04 07:44 -32.03637 115.66337 1508 ft 108 kts 299°
2026-05-04 07:45 -32.03258 115.65582 1519 ft 109 kts 301°
2026-05-04 07:45 -32.02859 115.64826 1496 ft 109 kts 301°
2026-05-04 07:45 -32.02454 115.64072 1470 ft 109 kts 301°
2026-05-04 07:45 -32.02032 115.63322 1438 ft 111 kts 302°
2026-05-04 07:46 -32.01596 115.62573 1423 ft 110 kts 303°
2026-05-04 07:46 -32.01298 115.61760 1400 ft 109 kts 274°
2026-05-04 07:46 -32.01228 115.60846 1318 ft 114 kts 270°
2026-05-04 07:46 -32.01169 115.59892 1240 ft 117 kts 272°
2026-05-04 07:47 -32.01082 115.58926 1056 ft 117 kts 272°
2026-05-04 07:47 -32.01023 115.57989 939 ft 117 kts 269°
2026-05-04 07:47 -32.00992 115.57040 827 ft 115 kts 265°
2026-05-04 07:49 -32.00667 115.52169 506 ft 95 kts 70°
2026-05-04 07:49 -32.00607 115.52841 240 ft 72 kts 99°
2026-05-04 07:49 -32.00622 115.53407 8 ft 63 kts 94°
2026-05-04 07:50 -32.00627 115.53872 5 ft 70 kts 93°
2026-05-04 07:50 -32.00631 115.54482 227 ft 77 kts 98°
2026-05-04 07:50 -32.00642 115.55117 495 ft 76 kts 98°
2026-05-04 07:50 -32.00631 115.55802 690 ft 86 kts 96°
2026-05-04 07:51 -32.00624 115.56471 986 ft 78 kts 97°
2026-05-04 07:51 -32.00639 115.57153 1175 ft 86 kts 96°
2026-05-04 07:51 -32.00626 115.57875 1260 ft 93 kts 92°
2026-05-04 07:51 -32.00621 115.58651 1264 ft 98 kts 95°
2026-05-04 07:52 -32.00635 115.59472 1257 ft 100 kts 96°
2026-05-04 07:52 -32.00661 115.60297 1258 ft 101 kts 97°
2026-05-04 07:52 -32.00702 115.61133 1258 ft 103 kts 98°
2026-05-04 07:52 -32.00757 115.61978 1260 ft 104 kts 98°
2026-05-04 07:53 -32.00826 115.62829 1263 ft 104 kts 100°
2026-05-04 07:54 -32.00010 115.62498 1183 ft 102 kts 229°
2026-05-04 07:55 -32.00614 115.62330 1175 ft 96 kts 148°
2026-05-04 07:55 -32.00740 115.63040 1183 ft 105 kts 61°
2026-05-04 07:55 -32.00076 115.63151 1249 ft 109 kts 316°
2026-05-04 07:55 -32.00169 115.62453 1289 ft 91 kts 203°
2026-05-04 07:56 -32.00699 115.62654 1301 ft 90 kts 114°
2026-05-04 07:56 -32.00811 115.63404 1240 ft 97 kts 109°
2026-05-04 07:56 -32.00994 115.64147 1247 ft 93 kts 109°
2026-05-04 07:56 -32.01167 115.64895 1163 ft 96 kts 109°
2026-05-04 07:57 -32.01331 115.65645 1147 ft 94 kts 108°
2026-05-04 07:57 -32.01612 115.66336 1219 ft 97 kts 132°
2026-05-04 07:57 -32.02091 115.66916 1435 ft 97 kts 136°
2026-05-04 07:57 -32.02529 115.67503 1488 ft 97 kts 132°
2026-05-04 07:58 -32.02797 115.67939 1483 ft 102 kts 126°
2026-05-04 07:58 -32.03264 115.68938 1498 ft 104 kts 120°
2026-05-04 07:58 -32.03584 115.69682 1435 ft 104 kts 120°
2026-05-04 07:58 -32.03927 115.70443 1338 ft 106 kts 120°
2026-05-04 07:59 -32.04287 115.71185 1274 ft 103 kts 130°
2026-05-04 07:59 -32.04743 115.71829 1218 ft 102 kts 133°
2026-05-04 07:59 -32.05217 115.72454 1155 ft 103 kts 136°
2026-05-04 07:59 -32.05689 115.73076 1145 ft 103 kts 129°
2026-05-04 08:00 -32.06074 115.73770 1173 ft 101 kts 123°
2026-05-04 08:00 -32.06339 115.74522 1193 ft 101 kts 112°
2026-05-04 08:00 -32.06646 115.75287 1167 ft 103 kts 118°
2026-05-04 08:02 -32.08752 115.80421 1163 ft 87 kts 123°
2026-05-04 08:02 -32.08947 115.80825 1163 ft 85 kts 124°
2026-05-04 08:02 -32.09240 115.81420 1168 ft 83 kts 125°
2026-05-04 08:03 -32.09584 115.82217 1155 ft 85 kts 103°
2026-05-04 08:03 -32.09622 115.82945 1076 ft 90 kts 97°
2026-05-04 08:03 -32.09633 115.83719 931 ft 92 kts 95°
2026-05-04 08:03 -32.09688 115.84452 837 ft 90 kts 113°
2026-05-04 08:04 -32.09938 115.85118 785 ft 90 kts 128°
2026-05-04 08:04 -32.10270 115.85726 731 ft 84 kts 128°
2026-05-04 08:04 -32.10451 115.86114 655 ft 84 kts 123°
2026-05-04 08:04 -32.10432 115.86817 431 ft 98 kts 52°
2026-05-04 08:05 -32.09936 115.87562 96 ft 75 kts 54°
2026-05-04 08:05 -32.09740 115.87886 95 ft 25 kts 54°
2026-05-04 08:05 -32.09686 115.87967 95 ft 16 kts 45°
2026-05-04 08:05 -32.09611 115.87922 95 ft 9 kts 296°
2026-05-04 08:06 -32.09626 115.87875 95 ft 13 kts 232°
2026-05-04 08:06 -32.09696 115.87766 95 ft 19 kts 235°
2026-05-04 08:06 -32.09779 115.87626 95 ft 20 kts 233°
2026-05-04 08:06 -32.09846 115.87502 95 ft 13 kts 283°